Content
SEND FEEDBACK

Daily
Averages
Monthly
Summary
Thailand

PHUKET, THAILAND


Home > Asia > Thailand
Elevation: 33 feet     Latitude: 08 07N     Longitude: 098 19E

WEATHER
 
SELECT A DAY
Number of Records: 236,207;   Date Range: 7/1/96 - 12/19/14
 
SHARE

PRINT THIS DATA

[ ← Previous Day ]
WEATHER ALMANAC - APRIL 1, 2013
[ Next Day → ]
[ °C ]   °F
Weather ElementAverageHighLow
Temperature85.5 °F96.8 °F (11:30 am)78.8 °F (3:30 am)
Dewpoint76.3 °F79 °F (1:00 am)73.4 °F (10:30 am)
Humidity75.3 %94 % (3:30 am)50 % (11:30 am)
Barometer29.81 in29.86 in (8:30 am)29.74 in (6:00 pm)
Wind Speed4.5 mph13.8 mph (6:00 pm)
Weather ElementAverage
Visibility5.2 mi
Wind DirectionESE (114.4 °)

Weather ElementTotal
Precipitation---
Cooling Degree Days22.8 (Base 65)
Growing Degree Days37.8 (Base 50)
Averaged from 50 records on April 1, 2013
WEATHER CONDITIONS BREAKOUT
WIND DIRECTION BREAKOUT
WEATHER BY HOUR - APRIL 1, 2013
[ °C ]   °F
Local TimeTemperatureDewpointHumidityBarometerVisibilityWind DirectionWind SpeedGust SpeedPrecipitationEventsConditions
12:30 AM82.4 °F77.0 °F84 %29.83 in4.3 miCalmMostly Cloudy
1:00 AM82.0 °F79.0 °F88 %29.78 in5.0 miCalmMist
1:00 AM80.6 °F77.0 °F89 %29.80 in4.3 miCalmMostly Cloudy
1:30 AM80.6 °F77.0 °F89 %29.80 in4.3 miCalmMostly Cloudy
2:00 AM80.6 °F77.0 °F89 %29.80 in4.3 miCalmMostly Cloudy
2:30 AM80.6 °F77.0 °F89 %29.77 in4.3 miCalmMostly Cloudy
3:30 AM78.8 °F77.0 °F94 %29.77 in4.3 miCalmMostly Cloudy
4:00 AM78.8 °F77.0 °F94 %29.77 in4.3 miCalmMostly Cloudy
4:30 AM78.8 °F77.0 °F94 %29.77 in4.3 miCalmMostly Cloudy
5:00 AM78.8 °F75.2 °F89 %29.77 in4.3 miCalmMostly Cloudy
5:30 AM78.8 °F77.0 °F94 %29.77 in4.3 miCalmMostly Cloudy
6:00 AM78.8 °F77.0 °F94 %29.80 in4.3 miCalmMostly Cloudy
6:30 AM78.8 °F77.0 °F94 %29.80 in5.0 miCalmMostly Cloudy
7:00 AM80.0 °F78.0 °F93 %29.78 in5.0 miCalmMist
7:00 AM78.8 °F77.0 °F94 %29.83 in4.3 miCalmMostly Cloudy
7:30 AM80.6 °F77.0 °F89 %29.83 in5.0 miCalmMostly Cloudy
8:00 AM84.2 °F77.0 °F79 %29.83 in5.0 miENE (60°)4.6 mphMostly Cloudy
8:30 AM86.0 °F75.2 °F70 %29.86 in5.6 miEast (80°)6.9 mphMostly Cloudy
9:00 AM87.8 °F77.0 °F70 %29.86 in5.6 miEast (90°)3.5 mphMostly Cloudy
9:30 AM89.6 °F75.2 °F62 %29.83 in5.6 miEast (90°)6.9 mphMostly Cloudy
10:00 AM91.4 °F75.2 °F59 %29.86 in5.6 miEast (100°)5.8 mphMostly Cloudy
10:30 AM91.4 °F73.4 °F55 %29.86 in5.6 miEast (90°)8.1 mphMostly Cloudy
11:00 AM91.4 °F73.4 °F55 %29.86 in5.6 miEast (90°)8.1 mphMostly Cloudy
11:30 AM96.8 °F75.2 °F50 %29.83 in5.6 miEast (90°)6.9 mphMostly Cloudy
12:00 PM93.2 °F73.4 °F52 %29.83 in5.6 miEast (90°)6.9 mphMostly Cloudy
12:30 PM93.2 °F75.2 °F56 %29.83 in5.6 miVariable8.1 mphMostly Cloudy
1:00 PM92.0 °F77.0 °F53 %29.80 in5.0 miNW (320°)3.5 mphHaze
1:00 PM93.2 °F75.2 °F56 %29.80 in5.6 miEast (80°)8.1 mphMostly Cloudy
1:30 PM95.0 °F75.2 °F53 %29.80 in5.6 miVariable5.8 mphMostly Cloudy
2:00 PM93.2 °F73.4 °F52 %29.80 in5.6 miWest (280°)6.9 mphMostly Cloudy
2:30 PM93.2 °F75.2 °F56 %29.80 in5.6 miWest (270°)10.4 mphMostly Cloudy
3:00 PM91.4 °F73.4 °F55 %29.80 in5.6 miWest (280°)10.4 mphMostly Cloudy
3:30 PM91.4 °F75.2 °F59 %29.77 in5.6 miWest (280°)11.5 mphMostly Cloudy
4:00 PM89.6 °F75.2 °F62 %29.77 in5.6 miWest (270°)10.4 mphMostly Cloudy
4:30 PM89.6 °F75.2 °F62 %29.77 in5.6 miWest (260°)10.4 mphMostly Cloudy
5:00 PM89.6 °F77.0 °F66 %29.77 in5.6 miWNW (290°)12.7 mphMostly Cloudy
5:30 PM87.8 °F77.0 °F70 %29.77 in6.2 miWest (280°)10.4 mphMostly Cloudy
6:00 PM87.8 °F77.0 °F70 %29.74 in6.2 miWest (280°)13.8 mphMostly Cloudy
6:30 PM86.0 °F77.0 °F74 %29.77 in6.2 miWNW (300°)8.1 mphMostly Cloudy
7:00 PM87.0 °F79.0 °F71 %29.76 in6.0 miWNW (300°)3.5 mphPartly Cloudy
7:00 PM86.0 °F77.0 °F74 %29.77 in6.2 miWest (280°)9.2 mphMostly Cloudy
7:30 PM84.2 °F77.0 °F79 %29.77 in5.0 miWNW (290°)6.9 mphMostly Cloudy
8:00 PM84.2 °F77.0 °F79 %29.80 in5.0 miWNW (300°)3.5 mphMostly Cloudy
8:30 PM86.0 °F77.0 °F74 %29.83 in5.0 miNNW (330°)4.6 mphMostly Cloudy
9:00 PM82.4 °F77.0 °F84 %29.83 in5.0 miNNE (20°)3.5 mphMostly Cloudy
9:30 PM80.6 °F77.0 °F89 %29.83 in5.0 miCalmMostly Cloudy
10:00 PM80.6 °F78.8 °F94 %29.83 in5.0 miCalmMostly Cloudy
10:30 PM80.6 °F77.0 °F89 %29.86 in5.0 miVariable2.3 mphMostly Cloudy
11:00 PM80.6 °F77.0 °F89 %29.86 in5.0 miVariable1.2 mphMostly Cloudy
11:30 PM80.6 °F77.0 °F89 %29.86 in5.0 miVariable1.2 mphMostly Cloudy
Hourly data recorded from VTSP, located miles away from Phuket, Thailand







STORIES FROM OUR PARTNERS